Hourly Data Report for October 01, 2017

All times are specified in Local Standard Time (LST). Add 1 hour to adjust for Daylight Saving Time where and when it is observed.

PORT HAWKESBURY
NOVA SCOTIA

45°39'24.000" N
61°22'05.000" W
114.90 m
8204495
71041
YPD

Download Data

Hourly Data (October 2017)
Hourly Data Report for October 1, 2017
Temp Definition
°C
Dew Point Temp Definition
°C
Rel Hum Definition
%
Wind Dir Definition
10's deg

Wind Spd Definition
km/h
Visibility Definition
km
Stn Press Definition
kPa
Hmdx Definition


Wind Chill Definition


Weather Definition


TIME
00:00 Legend Double Dagger 3.0 2.0 93 25 8 16.1 100.94     LegendNANA
01:00 Legend Double Dagger 2.3 1.3 93   0 16.1 100.94     LegendNANA
02:00 Legend Double Dagger 1.4 0.8 96 LegendMM 4 16.1 100.92     LegendNANA
03:00 Legend Double Dagger 2.9 2.4 96 LegendMM 4 16.1 100.90     LegendNANA
04:00 Legend Double Dagger 4.5 2.2 85 27 11 16.1 100.89     LegendNANA
05:00 Legend Double Dagger 4.8 2.5 85 26 11 16.1 100.87     LegendNANA
06:00 Legend Double Dagger 4.4 2.3 86 28 11 16.1 100.86     LegendNANA
07:00 Legend Double Dagger 5.3 2.7 83 25 11 16.1 100.85     LegendNANA
08:00 Legend Double Dagger 8.3 4.2 75 25 18 16.1 100.85     LegendNANA
09:00 Legend Double Dagger 10.2 4.2 66 26 18 16.1 100.83     LegendNANA
10:00 Legend Double Dagger 11.7 2.4 53 27 21 16.1 100.81     LegendNANA
11:00 Legend Double Dagger 12.8 3.2 52 28 17 16.1 100.75     LegendNANA
12:00 Legend Double Dagger 13.7 4.1 52 27 18 16.1 100.66     LegendNANA
13:00 Legend Double Dagger 14.9 3.3 45 23 17 16.1 100.56     LegendNANA
14:00 Legend Double Dagger 15.4 2.5 42 24 21 16.1 100.47     LegendNANA
15:00 Legend Double Dagger 15.5 2.8 42 24 21 16.1 100.40     LegendNANA
16:00 Legend Double Dagger 15.2 3.2 44 23 18 16.1 100.36     LegendNANA
17:00 Legend Double Dagger 14.3 4.4 51 25 15 16.1 100.38     LegendNANA
18:00 Legend Double Dagger 11.2 4.9 65 26 9 16.1 100.38     LegendNANA
19:00 Legend Double Dagger 9.5 5.1 74 23 5 16.1 100.43     LegendNANA
20:00 Legend Double Dagger 9.6 4.6 71 27 15 16.1 100.49     LegendNANA
21:00 Legend Double Dagger 9.9 4.3 68 30 18 16.1 100.48     LegendNANA
22:00 Legend Double Dagger 9.7 4.7 71 30 24 16.1 100.43     LegendNANA
23:00 Legend Double Dagger 9.9 5.9 76 29 17 16.1 100.40     LegendNANA

Notes on Data Quality.

Legend

  • E = Estimated
  • M = Missing
  • NA = Not Available
  • ‡ = Partner data that is not subject to review by the National Climate Archives
Date modified: